Location: Bruneau Dunes Observatory
(42.9024°N, 115.6902°W)
Time: 09:13:12
(UTC-06:00)

Daily predictions for brighter satellites

Satellite Brightness Start Highest point End
(mag) Time Altitude Azimuth Time Altitude Azimuth Time Altitude Azimuth
Cosmos 1805 Rocket 3.9 21:58:11 10° SSE 22:02:26 47° E 22:06:42 10° NNE
Cosmos 1300 3.1 22:02:54 10° N 22:06:38 47° E 22:10:20 10° SSE
NOSS 3-1 (C) 3.4 22:02:45 10° SSW 22:08:35 74° ESE 22:15:04 10° NE
Cosmos 2227 Rocket 3.2 22:07:23 10° SSE 22:11:55 25° ESE 22:16:27 10° NE
USA 186 4.3 22:11:49 10° WSW 22:12:30 11° W 22:13:13 10° WNW
Cosmos 1937 Rocket 4.1 22:07:52 10° SSE 22:12:36 36° ESE 22:17:20 10° NE
Cosmos 2112 Rocket 4.5 22:07:48 10° NNW 22:12:59 62° WSW 22:18:10 10° S
MetOp-A 4.3 22:12:16 10° SSE 22:17:30 59° ENE 22:22:46 10° N
H-2A R/B 2.5 22:15:09 10° S 22:19:39 68° WSW 22:24:09 10° NNW
Cosmos 292 Rocket 4.1 22:15:31 10° NNW 22:20:12 54° ENE 22:24:32 12° SE
Cosmos 1707 Rocket 3.6 22:16:20 10° N 22:20:42 70° E 22:25:05 10° SSE
SPOT 5 2.8 22:19:48 10° SSE 22:24:27 82° ENE 22:29:25 10° NNW
OTV 4 1.8 22:22:27 10° SW 22:24:47 21° SSE 22:26:19 15° SE
Cosmos 1666 Rocket 3.6 22:21:10 10° S 22:25:30 61° E 22:29:54 10° NNE
Meteor 2-11 Rocket 4.5 22:20:23 10° N 22:26:33 73° E 22:32:38 10° SSE
SL-16 R/B 3.9 22:23:21 10° N 22:27:41 22° NE 22:31:59 10° E
Cosmos 1455 3.8 22:25:42 10° NNE 22:28:36 20° ENE 22:30:51 13° ESE
CZ-4B R/B 3.9 22:23:46 10° NNE 22:28:49 44° E 22:33:43 10° S
Cosmos 2298 Rocket 4.0 22:24:03 10° SSW 22:29:22 84° ESE 22:34:43 10° NNE
Cosmos 1726 2.1 22:26:35 10° N 22:30:23 72° E 22:33:54 12° SSE
ARGOS 3.7 22:26:16 12° SE 22:31:00 46° ENE 22:36:08 10° N
Cosmos 2333 Rocket 2.6 22:27:20 10° NNW 22:32:58 53° ENE 22:37:44 14° SE
Meteor 1-11 4.2 22:27:16 10° S 22:33:00 81° E 22:38:45 10° NNE
Cosmos 2297 Rocket 3.1 22:33:34 10° SSE 22:38:17 29° ESE 22:43:05 10° NE
Meteor 1-4 Rocket 2.6 22:34:47 10° N 22:38:31 65° E 22:41:21 16° SSE
Cosmos 2315 Rocket 4.3 22:32:54 10° NNW 22:39:03 67° W 22:45:10 10° S
Cosmos 1470 Rocket 4.3 22:36:19 15° SSE 22:39:24 33° E 22:43:18 10° NNE
Cosmos 2219 Rocket 2.2 22:34:34 10° NNW 22:40:12 77° ENE 22:44:50 15° SSE
Cosmos 1933 Rocket 4.4 22:37:06 15° SSE 22:40:19 34° E 22:44:21 10° NNE
Lacrosse 4 Rocket 3.3 22:38:25 10° N 22:41:56 22° NE 22:45:16 11° E
Meteor 2-10 4.4 22:38:13 10° N 22:43:54 61° ENE 22:48:33 15° SSE
Cosmos 2058 3.6 22:39:57 10° SSW 22:43:57 54° W 22:48:00 10° N
COSMOS 2428 3.4 22:39:20 10° NW 22:44:49 50° WSW 22:50:17 10° S
SL-08 RB Rocket 4.1 22:43:11 17° SE 22:46:25 48° ENE 22:50:46 10° N
NOSS 0 Rocket 3.9 22:42:31 10° NNW 22:48:43 80° ENE 22:53:36 17° SSE
Nadezhda 1 Rocket 4.2 22:46:20 10° N 22:52:20 55° ENE 22:56:55 18° SSE
Tiangong 1 0.9 22:51:48 10° W 22:54:55 84° S 22:57:27 14° E
Terra 2.9 22:53:15 17° ESE 22:56:07 32° ENE 23:00:20 10° N
H-2A R/B 2.8 22:56:03 18° SE 22:59:38 43° ENE 23:04:45 10° N
Cosmos 1898 Rocket 4.0 22:55:25 10° SSW 23:00:32 61° WNW 23:05:43 10° NNE
COSMOS 2455 3.5 22:54:55 10° NNW 23:00:42 45° NE 23:04:58 18° ESE
SL-08 R/B 4.5 22:54:57 10° S 23:01:10 83° E 23:07:30 10° N
Cosmos 1980 3.7 22:59:08 10° NNW 23:04:49 86° ENE 23:08:40 21° SSE
Cosmos 1125 Rocket 4.3 23:03:57 21° SSE 23:06:39 34° E 23:11:23 10° NE
Cosmos 1745 Rocket 3.9 23:01:32 10° S 23:07:43 80° E 23:13:54 10° N
SPOT 1/Viking Rocket 3.8 23:08:10 16° S 23:12:17 66° WSW 23:17:26 10° NNW
Cosmos 1869 3.6 23:09:03 10° N 23:13:02 54° E 23:14:51 29° SE
Cosmos 1271 Rocket 3.5 23:09:29 10° NNW 23:13:13 49° W 23:15:59 17° SSW
Cosmos 1626 2.2 23:11:29 27° SSE 23:13:22 61° E 23:17:06 10° NNE
Sich 1 4.1 23:10:07 10° SSW 23:14:20 44° WNW 23:18:32 10° N
NOSS 3-1 (A) 4.2 23:08:39 10° SW 23:14:29 55° NW 23:21:02 10° NNE
OAO 2 Rocket 4.1 23:10:00 10° WSW 23:14:49 35° S 23:16:59 25° SE
Cosmos 1709 Rocket 4.5 23:12:21 22° SE 23:15:46 41° E 23:21:25 10° NNE
Cosmos 2237 Rocket 2.2 23:10:46 10° NNW 23:16:30 84° WSW 23:20:07 24° SSE
YAOGAN 6 3.9 23:13:57 14° SSW 23:16:39 35° W 23:19:59 10° NNW
ERBS 3.1 23:13:57 10° WSW 23:17:24 56° NW 23:20:51 10° NE
Iridium 2 3.8 23:15:42 19° SSW 23:18:23 73° W 23:22:15 10° N
Cosmos 1862 Rocket 3.4 23:15:39 10° N 23:20:01 81° E 23:22:14 28° SSE
CARTOSAT-1 3.8 23:19:15 29° SE 23:21:16 56° ENE 23:25:29 10° N
Cosmos 1633 Rocket 4.4 23:18:16 10° SW 23:22:21 38° WNW 23:26:27 10° N
Cosmos 2082 3.7 23:18:00 10° SSW 23:23:45 88° WNW 23:29:31 10° NNE
Cosmos 1386 Rocket 4.3 23:20:38 17° S 23:25:21 80° E 23:31:24 10° N
IGS 5A 3.6 23:27:24 33° SE 23:29:04 58° ENE 23:33:11 10° N
CZ-4C R/B 3.0 23:27:55 36° S 23:29:11 77° WSW 23:32:41 10° NNW
Cosmos 1703 4.4 23:25:36 10° SSW 23:29:18 41° WNW 23:33:02 10° N
CZ-4 R/B 4.3 23:27:52 10° N 23:32:45 64° WNW 23:37:15 11° SSW
SAR-Lupe-2 3.8 23:32:48 41° SE 23:33:43 56° ENE 23:37:15 10° N
ATLAS 2AS CENTAUR R/B 3.0 23:28:58 10° SSW 23:36:29 88° SE 23:44:38 10° NE
ATLAS 3B R/B 2.6 23:37:15 10° NW 23:44:19 87° NE 23:47:56 30° SE
COS B Rocket 4.2 23:42:15 10° NNE 23:46:00 36° E 23:46:41 34° ESE
Cosmos 1869 Rocket 3.9 23:48:02 39° SE 23:49:05 48° E 23:53:24 10° NNE
Cosmos 2181 Rocket 4.1 23:42:49 10° N 23:49:13 70° E 23:52:25 32° SSE
Aureole 2 Rocket 3.9 23:46:37 10° N 23:49:21 24° ENE 23:49:43 24° ENE
BREEZE-M DEB (TANK) 4.4 23:40:45 10° WNW 23:55:06 54° N 23:59:01 10° E
